This demonstration page uses our WeatherBlox Daily Observations layout. Learn more.

38.80484, -77.04692

Hourly Observations for April 10, 2019

Temp ( °F °C ) Dew Point ( °F °C ) Humidity (%) Winds ( mph kmh ) Pressure ( in mb ) Visibility ( mi km ) Precip ( " mm )
12:52 am 00:52 Mostly Cloudy 64 17.8 25 -3.9 23 23 NNW 18 30 29.76 1008 10 16.0934 0 0
1:52 am 01:52 Mostly Cloudy 61 16.1 28 -2.2 29 29 NNE 14 22 29.78 1009 10 16.0934 0 0
2:52 am 02:52 Mostly Clear 59 15 31 -0.6 35 35 NNE 12 19 29.79 1009 10 16.0934 0 0
3:52 am 03:52 Clear 58 14.4 31 -0.6 36 36 NNW 6 9 29.81 1010 10 16.0934 0 0
4:52 am 04:52 Clear 56 13.3 31 -0.6 39 39 Calm 29.8 1009 10 16.0934 0 0
5:52 am 05:52 Clear 53 11.7 35 1.7 51 51 Calm 29.82 1010 10 16.0934 0 0
6:52 am 06:52 Mostly Sunny 52 11.1 34 1.1 50 50 SSW 5 7 29.85 1011 10 16.0934 0 0
7:52 am 07:52 Mostly Sunny 55 12.8 39 3.9 55 55 S 6 9 29.86 1011 10 16.0934 0 0
8:52 am 08:52 Mostly Sunny 62 16.7 32 0 32 32 WNW 9 15 29.85 1011 10 16.0934 0 0
9:52 am 09:52 Sunny 65 18.3 32 0 29 29 N 15 24 29.85 1011 10 16.0934 0 0
10:52 am 10:52 Mostly Sunny 66 18.9 32 0 28 28 N 12 19 29.86 1011 10 16.0934 0 0
11:52 am 11:52 Mostly Sunny 68 20 32 0 26 26 W 12 19 29.87 1012 10 16.0934 0 0
12:52 pm 12:52 Mostly Cloudy 70 21.1 33 0.6 26 26 NNW 17 28 29.86 1011 10 16.0934 0 0
1:52 pm 13:52 Mostly Cloudy 71 21.7 35 1.7 27 27 N 12 19 29.85 1011 10 16.0934 0 0
2:52 pm 14:52 Mostly Cloudy 71 21.7 34 1.1 26 26 N 12 19 29.85 1011 10 16.0934 0 0
3:52 pm 15:52 Mostly Cloudy 70 21.1 32 0 25 25 NW 8 13 29.84 1011 10 16.0934 0 0
4:52 pm 16:52 Mostly Cloudy 70 21.1 33 0.6 26 26 NW 10 17 29.83 1010 10 16.0934 0 0
5:52 pm 17:52 Mostly Cloudy 70 21.1 33 0.6 26 26 NNW 10 17 29.84 1011 10 16.0934 0 0
6:52 pm 18:52 Mostly Cloudy 68 20 32 0 26 26 NNW 6 9 29.86 1011 10 16.0934 0 0
7:52 pm 19:52 Mostly Cloudy 65 18.3 32 0 29 29 NW 8 13 29.88 1012 10 16.0934 0 0
8:52 pm 20:52 Partly Cloudy 63 17.2 33 0.6 33 33 N 8 13 29.92 1013 10 16.0934 0 0
9:52 pm 21:52 Partly Cloudy 61 16.1 37 2.8 41 41 NNE 9 15 29.95 1014 10 16.0934 0 0
10:52 pm 22:52 Partly Cloudy 61 16.1 39 3.9 44 44 SSE 3 6 29.98 1015 10 16.0934 0 0
11:52 pm 23:52 Partly Cloudy 58 14.4 38 3.3 48 48 NNE 6 9 30 1016 10 16.0934 0 0

Powered by AerisWeather